• En España
  • Lista de países
  • Para 7 días
  • Temperatura del agua
  • Mapa Satelital
  • El tiempo en el mapa
  • Informadores
  • user-avatar
    Iniciar sesión

    Tiempo cada hora Mingachevir

    Hoy, 21 Enero, Domingo

    Tiempo Temperatura Precipitaciones Viento Presión Humedad
    00:00 +7°C° 0 mm 1 mps 757 mmHg 84%
    01:00 +7°C° 0 mm 1 mps 757 mmHg 83%
    02:00 +7°C° 0 mm 1 mps 757 mmHg 83%
    03:00 +7°C° 0 mm 1 mps 757 mmHg 82%
    04:00 +7°C° 0 mm 1 mps 757 mmHg 81%
    05:00 +6°C° 0 mm 1 mps 756 mmHg 80%
    06:00 +6°C° 0 mm 1 mps 756 mmHg 78%
    07:00 +7°C° 0 mm 1 mps 756 mmHg 73%
    08:00 +8°C° 0 mm 1 mps 756 mmHg 69%
    09:00 +9°C° 0 mm 1 mps 756 mmHg 64%
    10:00 +9°C° 0 mm 2 mps 755 mmHg 57%
    11:00 +12°C° 0 mm 2 mps 754 mmHg 51%
    12:00 +12°C° 0 mm 3 mps 754 mmHg 44%
    13:00 +13°C° 0 mm 3 mps 753 mmHg 42%
    14:00 +13°C° 0 mm 3 mps 753 mmHg 40%
    15:00 +14°C° 0 mm 4 mps 753 mmHg 39%
    16:00 +13°C° 0 mm 4 mps 753 mmHg 41%
    17:00 +12°C° 0 mm 4 mps 754 mmHg 44%
    18:00 +11°C° 0 mm 4 mps 754 mmHg 47%
    19:00 +10°C° 0 mm 4 mps 754 mmHg 45%
    20:00 +10°C° 0 mm 4 mps 755 mmHg 44%
    21:00 +10°C° 0 mm 4 mps 755 mmHg 42%
    22:00 +10°C° 0 mm 4 mps 754 mmHg 42%
    23:00 +10°C° 0 mm 3 mps 754 mmHg 41%

    Mañana, 22 Enero, Lunes

    Tiempo Temperatura Precipitaciones Viento Presión Humedad
    00:00 +9°C° 0 mm 3 mps 754 mmHg 40%
    01:00 +9°C° 0 mm 3 mps 754 mmHg 40%
    02:00 +9°C° 0 mm 2 mps 754 mmHg 40%
    03:00 +8°C° 0 mm 2 mps 754 mmHg 40%
    04:00 +8°C° 0 mm 2 mps 754 mmHg 40%
    05:00 +9°C° 0 mm 1 mps 754 mmHg 40%
    06:00 +9°C° 0 mm 1 mps 753 mmHg 40%
    07:00 +9°C° 0 mm 1 mps 753 mmHg 39%
    08:00 +10°C° 0 mm 1 mps 753 mmHg 38%
    09:00 +11°C° 0 mm 1 mps 753 mmHg 38%
    10:00 +12°C° 0 mm 1 mps 752 mmHg 35%
    11:00 +13°C° 0 mm 1 mps 751 mmHg 33%
    12:00 +14°C° 0 mm 1 mps 750 mmHg 31%
    13:00 +14°C° 0 mm 1 mps 750 mmHg 32%
    14:00 +14°C° 0 mm 1 mps 749 mmHg 32%
    15:00 +14°C° 0 mm 1 mps 749 mmHg 33%
    16:00 +13°C° 0 mm 1 mps 749 mmHg 36%
    17:00 +12°C° 0 mm 1 mps 749 mmHg 39%
    18:00 +11°C° 0 mm 1 mps 749 mmHg 42%
    19:00 +10°C° 0 mm 2 mps 749 mmHg 42%
    20:00 +9°C° 0 mm 2 mps 748 mmHg 42%
    21:00 +9°C° 0 mm 2 mps 748 mmHg 41%
    22:00 +9°C° 0 mm 2 mps 748 mmHg 41%
    23:00 +8°C° 0 mm 2 mps 748 mmHg 40%

    Pasado mañana, 23 Enero, Martes

    Tiempo Temperatura Precipitaciones Viento Presión Humedad
    00:00 +8°C° 0 mm 3 mps 748 mmHg 39%
    01:00 +8°C° 0 mm 3 mps 748 mmHg 37%
    02:00 +8°C° 0 mm 3 mps 748 mmHg 35%
    03:00 +8°C° 0 mm 3 mps 748 mmHg 34%
    04:00 +7°C° 0 mm 4 mps 748 mmHg 33%
    05:00 +7°C° 0 mm 4 mps 748 mmHg 32%
    06:00 +7°C° 0 mm 4 mps 747 mmHg 31%
    07:00 +8°C° 0 mm 4 mps 748 mmHg 30%
    08:00 +10°C° 0 mm 4 mps 748 mmHg 29%
    09:00 +11°C° 0 mm 4 mps 748 mmHg 29%
    10:00 +12°C° 0 mm 4 mps 747 mmHg 26%
    11:00 +14°C° 0 mm 4 mps 747 mmHg 24%
    12:00 +15°C° 0 mm 5 mps 746 mmHg 22%
    13:00 +15°C° 0 mm 5 mps 747 mmHg 22%
    14:00 +15°C° 0 mm 5 mps 747 mmHg 22%
    15:00 +15°C° 0 mm 5 mps 747 mmHg 23%
    16:00 +14°C° 0 mm 4 mps 747 mmHg 25%
    17:00 +13°C° 0 mm 3 mps 747 mmHg 28%
    18:00 +12°C° 0 mm 3 mps 748 mmHg 31%
    19:00 +12°C° 0 mm 3 mps 748 mmHg 32%
    20:00 +11°C° 0 mm 3 mps 748 mmHg 33%
    21:00 +11°C° 0 mm 3 mps 748 mmHg 33%
    22:00 +11°C° 0 mm 3 mps 748 mmHg 34%
    23:00 +11°C° 0 mm 3 mps 747 mmHg 35%

    24 Enero, Miércoles

    Tiempo Temperatura Precipitaciones Viento Presión Humedad
    00:00 +11°C° 0 mm 3 mps 747 mmHg 36%
    01:00 +10°C° 0 mm 3 mps 748 mmHg 37%
    02:00 +10°C° 0 mm 3 mps 748 mmHg 37%
    03:00 +10°C° 0 mm 3 mps 748 mmHg 38%
    04:00 +10°C° 0 mm 4 mps 748 mmHg 40%
    05:00 +8°C° 0 mm 4 mps 749 mmHg 41%
    06:00 +8°C° 0 mm 4 mps 749 mmHg 43%
    07:00 +9°C° 0 mm 5 mps 749 mmHg 42%
    08:00 +9°C° 0 mm 5 mps 750 mmHg 41%
    09:00 +10°C° 0 mm 6 mps 751 mmHg 40%
    10:00 +11°C° 0 mm 6 mps 751 mmHg 38%
    11:00 +13°C° 0 mm 6 mps 751 mmHg 37%
    12:00 +14°C° 0 mm 6 mps 751 mmHg 35%
    13:00 +14°C° 0 mm 6 mps 751 mmHg 35%
    14:00 +14°C° 0 mm 6 mps 751 mmHg 35%
    15:00 +14°C° 0 mm 5 mps 751 mmHg 35%
    16:00 +13°C° 0 mm 4 mps 752 mmHg 39%
    17:00 +12°C° 0 mm 3 mps 752 mmHg 42%
    18:00 +11°C° 0 mm 3 mps 753 mmHg 45%
    19:00 +12°C° 0 mm 2 mps 754 mmHg 47%
    20:00 +12°C° 0 mm 2 mps 754 mmHg 50%
    21:00 +10°C° 0 mm 2 mps 755 mmHg 52%
    22:00 +10°C° 0 mm 2 mps 755 mmHg 56%
    23:00 +9°C° 0 mm 2 mps 755 mmHg 60%

    25 Enero, Jueves

    Tiempo Temperatura Precipitaciones Viento Presión Humedad
    00:00 +9°C° 0 mm 1 mps 756 mmHg 64%
    01:00 +9°C° 0 mm 1 mps 756 mmHg 69%
    02:00 +8°C° 0 mm 1 mps 757 mmHg 73%
    03:00 +7°C° 0 mm 1 mps 757 mmHg 77%
    04:00 +7°C° 0 mm 1 mps 757 mmHg 80%
    05:00 +7°C° 0 mm 1 mps 758 mmHg 83%
    06:00 +6°C° 0 mm 1 mps 758 mmHg 85%
    07:00 +7°C° 0 mm 1 mps 759 mmHg 84%
    08:00 +6°C° 0 mm 2 mps 759 mmHg 83%
    09:00 +7°C° 0 mm 2 mps 760 mmHg 82%
    10:00 +7°C° 0 mm 2 mps 759 mmHg 78%
    11:00 +8°C° 0 mm 3 mps 759 mmHg 75%
    12:00 +9°C° 0 mm 3 mps 759 mmHg 71%
    13:00 +9°C° 0 mm 3 mps 759 mmHg 72%
    14:00 +9°C° 0 mm 3 mps 759 mmHg 72%
    15:00 +8°C° 0 mm 3 mps 759 mmHg 72%
    16:00 +8°C° 0 mm 3 mps 759 mmHg 75%
    17:00 +8°C° 0 mm 3 mps 759 mmHg 77%
    18:00 +7°C° 0 mm 3 mps 760 mmHg 79%
    19:00 +7°C° 0 mm 3 mps 760 mmHg 80%
    20:00 +7°C° 0 mm 3 mps 760 mmHg 80%
    21:00 +5°C° 0 mm 3 mps 760 mmHg 80%
    22:00 +5°C° 0,1 mm 3 mps 760 mmHg 81%
    23:00 +5°C° 0,1 mm 3 mps 760 mmHg 82%

    26 Enero, Viernes

    Tiempo Temperatura Precipitaciones Viento Presión Humedad
    00:00 +5°C° 0,1 mm 3 mps 760 mmHg 83%
    01:00 +5°C° 0,1 mm 3 mps 760 mmHg 84%
    02:00 +4°C° 0,1 mm 3 mps 759 mmHg 84%
    03:00 +4°C° 0,1 mm 3 mps 759 mmHg 85%
    04:00 +4°C° 0,1 mm 3 mps 759 mmHg 85%
    05:00 +4°C° 0,1 mm 3 mps 759 mmHg 85%
    06:00 +4°C° 0,1 mm 3 mps 759 mmHg 86%
    07:00 +4°C° 0,1 mm 3 mps 759 mmHg 85%
    08:00 +4°C° 0,1 mm 3 mps 759 mmHg 84%
    09:00 +4°C° 0,1 mm 3 mps 759 mmHg 84%
    10:00 +4°C° 0,1 mm 3 mps 759 mmHg 82%
    11:00 +5°C° 0,1 mm 3 mps 758 mmHg 80%
    12:00 +5°C° 0,1 mm 3 mps 758 mmHg 78%
    13:00 +5°C° 0,1 mm 3 mps 757 mmHg 78%
    14:00 +5°C° 0,1 mm 3 mps 757 mmHg 79%
    15:00 +5°C° 0,1 mm 3 mps 756 mmHg 79%
    16:00 +5°C° 0,2 mm 3 mps 757 mmHg 81%
    17:00 +4°C° 0,2 mm 3 mps 757 mmHg 83%
    18:00 +4°C° 0,2 mm 3 mps 757 mmHg 85%
    19:00 +4°C° 0,4 mm 3 mps 757 mmHg 85%
    20:00 +4°C° 0,4 mm 3 mps 757 mmHg 86%
    21:00 +4°C° 0,4 mm 3 mps 756 mmHg 86%
    22:00 +4°C° 0,3 mm 3 mps 756 mmHg 87%
    23:00 +4°C° 0,3 mm 3 mps 756 mmHg 87%
    Mostrar más